Starlink 11101

operational
NORAD ID: 59715 Int'l Des: 2024-088 Owner: SPXS Country: US Constellation: starlink
LEOCIRCULAR

Starlink 11101について

説明を読み込み中...

リアルタイム位置

3D地球を読み込み中...

次回通過

高度履歴

Altitude vs Time

uPlot chart will show altitude changes over time

軌道要素

1 59715U 24088H 25351.30273608 -.00001235 00000-0 -53425-5 0 9991
2 59715 53.1594 12.3198 0001120 59.1491 300.9637 15.69703189 93338
Epoch: Dec 17, 2025 • Age: 12 hours

現在のステータス

高度 378.2 km
速度 7.68 km/s
衛星直下点 -51.68°S, 74.7°W
打ち上げ日 May 10, 2024
運用期間 1.6 years
タイプ internet

技術仕様

分類 Payload
質量 960.00 kg
乾燥質量 910.00 kg
総質量 960.00 kg
長さ 0.30 m
直径 4.10 m
スパン 29.00 m
形状 Box + pan
製造者 SPXS
バスタイプ Starlink V2MD
フェーズステータス In Orbit
所有者/国 SPXS/US

大規模コンステレーション

Loading constellations...